[Date Prev][Date Next][Thread Prev][Thread Next] - [Date Index][Thread Index][Author Index]
MIR & Sputnik-41 keps 11-22
- Subject: [sarex] MIR & Sputnik-41 keps 11-22
- From: "Dr Dave Larsen [ PhD ]" <doc@xxxxxxxxxxx>
- Date: Sun, 22 Nov 1998 14:01:46 -0800
MIR
1 16609U 86017A 98326.82021384 .00021382 00000-0 16925-3 0 9857
2 16609 51.6601 320.1842 0008147 6.1315 353.9750 15.71246700728944
SPUTNIK 41
1 25533U 98062C 98326.17383939 .00135536 00000-0 92319-3 0 74
2 25533 51.6635 323.3579 0008407 11.3325 348.7903 15.73900358 1705
----
Via the sarex mailing list at AMSAT.ORG courtesy of AMSAT-NA.
To unsubscribe, send "unsubscribe sarex" to Majordomo@amsat.org
AMSAT Home